Probability
35 16 0 0 0 0 0 0 0 0 0 0 0 0 0 0 0 0 0 0 3 3 6 23 23 29 26 35 39 42 39 35 35 32 42 42 42 39 42 39 32 39 35 35 39 39 35 39 39
19 10 0 0 0 0 0 0 0 0 0 0 0 0 0 0 0 0 0 0 3 6 10 6 26 32 32 29 29 35 32 32 29 29 32 32 39 35 32 29 29 39 35 35 39 39 32 29 26
16 0 0 0 0 0 0 0 0 0 0 0 0 0 0 0 0 0 0 0 0 3 6 16 32 26 26 26 26 29 26 26 26 16 23 16 16 16 16 13 19 26 29 29 32 35 26 29 32
0 0 0 0 0 0 0 0 0 0 0 0 0 0 0 0 3 0 0 0 3 3 6 16 29 26 26 23 26 16 16 16 13 13 13 10 13 16 13 16 13 13 19 16 29 26 26 19 26
0 0 0 0 0 0 0 0 0 0 0 0 0 0 0 0 0 0 0 0 3 3 3 10 13 13 16 16 16 16 16 13 13 13 13 6 6 10 10 13 13 10 16 19 26 26 23 29 32
0 0 0 0 0 0 0 0 0 0 0 0 0 0 0 0 0 0 0 3 3 3 6 10 13 10 10 10 10 13 16 10 10 10 6 3 10 6 13 13 13 13 16 19 23 19 26 29 29
0 0 0 0 0 0 0 0 0 0 0 0 0 0 0 0 0 0 3 3 3 3 6 6 6 6 10 13 10 10 10 6 6 3 6 10 13 10 10 10 13 13 16 16 19 19 26 23 26
0 0 0 0 0 0 0 0 0 0 0 0 0 0 0 0 0 0 3 3 3 3 3 3 3 3 3 3 6 3 6 6 6 3 3 6 6 6 6 6 10 16 16 13 13 19 16 32 35
0 0 0 0 0 0 0 0 0 0 0 0 0 0 0 0 0 0 3 3 3 3 3 3 3 3 3 3 3 3 3 3 3 3 3 0 0 0 0 3 16 16 13 13 10 13 10 19 16
0 0 0 0 0 0 0 0 0 0 0 0 0 0 0 0 0 3 3 3 3 3 3 3 3 3 3 3 0 0 0 0 0 0 0 0 0 0 0 0 3 3 13 6 13 16 6 3 3
0 0 0 0 0 0 0 0 0 0 0 0 0 0 0 0 0 0 0 0 3 3 3 3 3 3 0 0 0 0 0 0 0 0 0 0 0 0 0 0 0 0 0 0 0 0 0 0 0
0 0 0 0 0 0 0 0 0 0 0 0 0 0 0 0 0 0 0 0 3 3 3 3 3 0 0 0 0 0 0 0 0 0 0 0 0 0 0 0 0 0 0 0 0 0 0 0 0
0 0 0 0 0 0 0 0 0 0 0 0 0 0 0 0 0 0 0 3 3 3 3 3 3 0 0 0 0 0 0 0 0 0 0 0 0 0 0 0 0 0 0 0 0 0 0 0 0
0 0 0 0 0 0 0 0 0 0 0 0 0 0 0 0 3 3 0 0 3 3 3 0 0 0 0 0 0 0 0 0 0 0 0 0 0 0 0 0 0 0 0 0 0 0 0 0 0
0 0 0 0 0 0 0 0 0 0 0 0 0 0 0 0 3 3 0 0 0 3 3 0 0 0 0 0 0 0 0 0 0 0 0 0 0 0 0 0 0 0 0 0 0 0 0 0 0
0 0 0 0 0 0 0 0 0 0 0 0 0 0 0 0 3 3 0 0 0 0 0 0 0 0 0 0 0 0 0 0 0 0 0 0 0 0 0 0 0 0 0 0 0 0 0 0 0
0 0 0 0 0 0 0 0 0 0 0 0 0 0 0 0 3 3 0 0 0 0 0 0 0 0 0 0 0 0 0 0 0 0 0 0 0 0 0 0 0 0 0 0 0 0 0 0 0
0 0 0 0 0 0 0 0 0 0 0 0 0 0 0 0 0 3 0 0 0 0 0 0 0 0 0 0 0 0 0 0 0 0 0 0 0 0 0 0 0 0 0 0 0 0 0 0 0
0 0 0 0 0 0 0 0 0 0 0 0 0 0 0 0 0 0 0 0 0 0 0 0 0 0 0 0 0 0 0 0 0 0 0 0 0 0 0 0 0 0 0 0 0 0 0 0 0
0 0 0 0 0 0 0 0 0 0 0 0 0 0 0 0 0 0 0 0 0 0 0 0 0 0 0 0 0 0 0 0 0 0 0 0 0 0 0 0 0 0 0 0 0 0 0 0 0
0 0 0 0 0 0 0 0 0 0 0 0 0 0 0 0 0 0 0 0 0 0 0 0 0 0 0 0 0 0 0 0 0 0 0 0 0 0 0 0 0 0 0 0 0 0 0 0 0
0 0 0 0 0 0 0 0 0 0 0 0 0 0 0 0 0 0 0 0 0 0 0 0 0 0 0 0 0 0 0 0 0 0 0 0 0 0 0 0 0 0 0 0 0 0 0 0 0
0 0 0 0 0 0 0 0 0 0 0 0 0 0 0 0 0 0 0 0 0 0 0 0 0 0 0 0 0 0 0 0 0 0 0 0 0 0 0 0 0 0 0 0 0 0 0 0 0
0 0 0 0 0 0 0 0 0 0 0 0 0 0 0 0 0 0 0 0 0 0 0 0 0 0 0 0 0 0 0 0 0 0 0 0 0 0 0 0 0 0 0 0 0 0 0 0 0
0 0 0 0 0 0 0 0 0 0 0 0 0 0 0 0 0 0 0 0 0 0 0 0 0 0 0 0 0 0 0 0 0 0 0 0 0 0 0 0 0 0 0 0 0 0 0 0 0
0 0 0 0 0 0 0 0 0 0 0 0 0 0 0 0 0 0 0 0 0 0 0 0 0 0 0 0 0 0 0 0 0 0 0 0 0 0 0 0 0 0 0 0 0 0 0 0 0
0 0 0 0 0 0 0 0 0 0 0 0 0 0 0 0 0 0 0 0 0 0 0 0 0 0 0 0 0 0 0 0 0 0 0 0 0 0 0 0 0 0 0 0 0 0 0 0 0
0 0 0 0 0 0 0 0 0 0 0 0 0 0 0 0 0 0 0 0 0 0 0 0 0 0 0 0 0 0 0 0 0 0 0 0 0 0 0 0 0 0 0 0 0 0 0 0 0
0 0 0 0 0 0 0 0 0 0 0 0 0 0 0 0 0 0 0 0 0 0 0 0 0 0 0 0 0 0 0 0 0 0 0 0 0 0 0 0 0 0 0 0 0 0 0 0 0
0 0 0 0 0 0 0 0 0 0 0 0 0 0 0 0 0 0 0 0 0 0 0 0 0 0 0 0 0 0 0 0 0 0 0 0 0 0 0 0 0 0 0 0 0 0 0 0 0
Height
5868 5869 5870 5871 5872 5873 5873 5874 5875 5876 5878 5878 5879 5880 5881 5882 5883 5886 5884 5883 5884 5884 5883 5883 5883 5883 5882 5882 5881 5881 5881 5880 5880 5879 5879 5878 5877 5876 5876 5875 5875 5875 5875 5874 5874 5874 5874 5874 5874
5868 5869 5871 5871 5872 5872 5873 5874 5875 5876 5877 5878 5879 5880 5881 5881 5882 5882 5882 5883 5883 5883 5883 5883 5883 5883 5882 5882 5881 5881 5880 5880 5880 5879 5878 5878 5877 5876 5876 5875 5874 5874 5874 5873 5873 5873 5873 5873 5873
5867 5869 5871 5871 5871 5872 5873 5873 5874 5875 5876 5877 5878 5879 5880 5880 5881 5881 5882 5882 5882 5883 5883 5883 5883 5882 5882 5882 5881 5881 5880 5880 5879 5879 5878 5877 5877 5876 5875 5874 5874 5873 5873 5872 5872 5872 5872 5872 5872
5867 5868 5870 5870 5870 5871 5872 5872 5873 5874 5875 5876 5877 5878 5878 5879 5880 5881 5881 5881 5882 5882 5882 5882 5882 5882 5882 5881 5881 5881 5880 5880 5879 5879 5878 5877 5876 5875 5874 5874 5873 5872 5872 5871 5871 5870 5870 5870 5870
5866 5867 5868 5868 5869 5870 5871 5871 5872 5873 5874 5875 5876 5877 5877 5879 5879 5880 5880 5880 5881 5881 5881 5881 5881 5881 5881 5881 5881 5881 5880 5880 5879 5879 5878 5877 5876 5875 5874 5873 5872 5871 5871 5870 5869 5869 5869 5868 5869
5865 5866 5867 5867 5868 5869 5870 5871 5871 5872 5873 5874 5875 5875 5876 5877 5878 5878 5879 5880 5880 5881 5881 5881 5881 5881 5881 5880 5880 5880 5880 5879 5879 5879 5878 5877 5876 5875 5873 5872 5871 5870 5869 5869 5868 5868 5867 5867 5867
5864 5865 5865 5866 5867 5868 5869 5869 5870 5871 5872 5872 5873 5874 5875 5876 5877 5878 5878 5878 5879 5879 5880 5880 5880 5880 5880 5880 5880 5880 5879 5879 5879 5878 5877 5876 5875 5874 5873 5872 5870 5869 5869 5868 5867 5867 5867 5866 5866
5862 5864 5864 5865 5866 5867 5867 5868 5869 5870 5871 5871 5872 5873 5874 5875 5876 5877 5877 5877 5878 5878 5879 5879 5879 5879 5879 5879 5879 5879 5879 5879 5878 5878 5877 5876 5875 5873 5872 5871 5870 5869 5868 5867 5866 5866 5866 5865 5865
5860 5863 5862 5863 5864 5865 5866 5867 5867 5868 5869 5869 5871 5872 5873 5874 5874 5875 5876 5877 5877 5877 5878 5878 5878 5878 5878 5878 5878 5878 5878 5878 5878 5877 5876 5875 5874 5873 5872 5870 5869 5868 5867 5866 5866 5865 5864 5864 5864
5859 5860 5861 5862 5863 5863 5864 5865 5866 5867 5867 5868 5869 5870 5871 5872 5873 5874 5875 5875 5876 5876 5876 5877 5877 5877 5877 5877 5877 5877 5877 5877 5877 5876 5876 5875 5874 5872 5871 5870 5869 5868 5866 5866 5865 5864 5864 5863 5863
5857 5858 5859 5860 5861 5862 5863 5864 5864 5865 5866 5866 5867 5868 5869 5870 5871 5873 5873 5874 5874 5875 5875 5875 5876 5876 5876 5877 5877 5877 5877 5876 5876 5876 5875 5874 5873 5872 5870 5869 5868 5867 5866 5865 5864 5863 5863 5862 5862
5855 5856 5857 5858 5859 5860 5861 5862 5863 5863 5864 5865 5865 5866 5867 5869 5870 5871 5872 5872 5873 5873 5873 5874 5874 5875 5875 5876 5876 5876 5876 5876 5876 5875 5874 5873 5872 5871 5870 5869 5867 5866 5865 5864 5863 5862 5862 5862 5862
5854 5854 5855 5856 5857 5858 5859 5860 5861 5862 5862 5863 5864 5865 5866 5867 5868 5869 5870 5870 5871 5872 5872 5873 5874 5874 5875 5875 5876 5876 5876 5876 5875 5875 5874 5873 5872 5871 5869 5868 5867 5866 5864 5864 5863 5862 5861 5861 5861
5852 5852 5853 5854 5855 5856 5857 5858 5859 5860 5860 5861 5862 5863 5864 5866 5867 5868 5868 5869 5870 5870 5871 5871 5873 5873 5874 5874 5875 5875 5875 5875 5875 5874 5873 5872 5871 5870 5869 5868 5866 5865 5864 5863 5862 5862 5861 5861 5861
5851 5851 5852 5853 5853 5855 5856 5857 5857 5858 5859 5860 5860 5862 5863 5864 5865 5866 5867 5868 5869 5869 5870 5871 5872 5872 5873 5874 5874 5875 5875 5874 5874 5874 5873 5872 5871 5870 5868 5867 5866 5865 5863 5862 5862 5861 5861 5861 5861
5850 5851 5851 5852 5852 5853 5856 5856 5856 5856 5857 5858 5859 5860 5861 5862 5863 5865 5866 5867 5867 5868 5869 5870 5871 5871 5872 5873 5874 5874 5874 5874 5874 5873 5872 5871 5870 5869 5868 5867 5866 5864 5863 5862 5861 5861 5861 5861 5861
5849 5849 5850 5851 5851 5852 5853 5854 5854 5855 5856 5856 5857 5858 5859 5860 5861 5863 5864 5865 5866 5867 5868 5869 5870 5871 5872 5872 5873 5873 5873 5873 5873 5873 5872 5871 5870 5869 5868 5867 5865 5864 5863 5862 5862 5861 5861 5861 5861
5848 5848 5848 5849 5850 5850 5851 5852 5853 5853 5854 5855 5856 5856 5858 5859 5860 5861 5862 5863 5864 5865 5867 5868 5868 5870 5871 5871 5872 5873 5873 5873 5872 5872 5871 5871 5870 5869 5868 5867 5865 5864 5863 5863 5862 5861 5861 5861 5861
5846 5847 5847 5848 5848 5849 5849 5850 5851 5851 5852 5853 5854 5855 5856 5857 5858 5859 5860 5862 5863 5864 5865 5866 5867 5868 5869 5870 5871 5872 5872 5872 5872 5872 5871 5871 5870 5869 5868 5867 5866 5864 5864 5863 5862 5862 5861 5861 5861
5845 5846 5846 5847 5847 5848 5848 5849 5849 5850 5850 5851 5852 5853 5854 5855 5856 5858 5859 5860 5861 5862 5863 5865 5866 5867 5868 5869 5870 5871 5871 5871 5871 5871 5871 5870 5870 5869 5868 5867 5866 5865 5864 5863 5862 5862 5862 5861 5861
5844 5845 5845 5845 5846 5846 5847 5848 5848 5849 5849 5850 5851 5852 5853 5854 5855 5856 5857 5858 5860 5861 5862 5863 5865 5866 5867 5868 5869 5870 5870 5870 5871 5871 5870 5870 5869 5869 5868 5867 5866 5865 5864 5863 5863 5862 5862 5862 5862
5843 5843 5844 5844 5845 5845 5846 5847 5847 5847 5848 5848 5849 5850 5851 5852 5853 5854 5856 5857 5859 5860 5861 5862 5864 5865 5866 5867 5868 5869 5870 5870 5870 5870 5870 5870 5869 5869 5868 5867 5866 5865 5864 5863 5863 5862 5862 5862 5862
5842 5842 5843 5843 5844 5845 5845 5846 5847 5846 5846 5847 5848 5849 5850 5851 5852 5853 5854 5856 5857 5858 5860 5861 5863 5864 5865 5866 5867 5868 5868 5869 5869 5869 5869 5869 5869 5868 5868 5867 5866 5865 5864 5864 5863 5862 5862 5862 5862
5841 5842 5842 5842 5843 5844 5844 5844 5845 5845 5845 5846 5846 5847 5848 5849 5851 5852 5853 5855 5856 5858 5859 5860 5862 5863 5864 5865 5866 5867 5867 5868 5868 5868 5868 5868 5868 5868 5867 5867 5866 5865 5864 5864 5863 5862 5862 5862 5861
5841 5842 5842 5842 5842 5843 5843 5843 5844 5844 5844 5844 5845 5845 5846 5848 5849 5851 5852 5854 5855 5856 5858 5859 5860 5862 5863 5864 5865 5866 5866 5867 5867 5867 5868 5868 5867 5867 5867 5866 5866 5865 5864 5863 5863 5862 5862 5861 5861
5840 5841 5842 5842 5842 5842 5842 5842 5843 5843 5843 5843 5843 5844 5845 5846 5848 5849 5850 5852 5853 5855 5856 5857 5859 5860 5862 5863 5864 5864 5865 5865 5866 5866 5866 5867 5867 5866 5866 5865 5865 5864 5864 5863 5862 5862 5861 5861 5860
5839 5840 5840 5841 5841 5841 5841 5842 5842 5842 5842 5842 5843 5843 5843 5845 5846 5848 5849 5850 5852 5853 5854 5855 5857 5858 5860 5861 5862 5863 5863 5864 5864 5865 5865 5865 5865 5865 5865 5864 5864 5863 5863 5862 5861 5861 5860 5860 5859
5838 5839 5839 5839 5840 5840 5841 5841 5842 5841 5841 5842 5842 5842 5842 5843 5845 5846 5847 5848 5850 5851 5852 5854 5855 5856 5858 5859 5860 5861 5862 5862 5863 5863 5863 5864 5864 5863 5863 5863 5862 5862 5861 5861 5860 5859 5859 5858 5857
5837 5838 5838 5838 5839 5839 5839 5842 5840 5840 5840 5840 5840 5841 5841 5842 5843 5844 5845 5846 5848 5849 5850 5851 5853 5854 5856 5857 5858 5858 5859 5860 5860 5861 5861 5862 5862 5861 5861 5861 5861 5860 5860 5859 5858 5858 5857 5856 5855
5835 5836 5837 5838 5838 5837 5838 5842 5838 5838 5838 5839 5839 5839 5839 5840 5841 5842 5843 5844 5846 5847 5848 5849 5851 5852 5853 5854 5855 5856 5857 5858 5858 5858 5859 5859 5859 5859 5859 5859 5859 5858 5858 5857 5856 5856 5855 5854 5853
Wind_Speed
6 6 6 7 9 9 7 7 7 6 6 5 4 4 4 3 4 3 2 2 1 1 1 2 2 3 4 4 4 4 4 5 6 6 6 7 7 6 6 6 6 5 5 5 5 5 5 6 6
7 7 7 7 9 9 8 8 8 7 6 5 5 4 4 4 4 3 3 2 2 2 2 2 3 3 3 3 3 4 4 5 5 6 6 6 6 7 6 6 6 6 6 6 5 5 6 6 5
8 8 8 9 8 8 8 8 8 7 7 7 6 6 5 5 5 4 3 3 3 2 2 3 3 3 3 3 3 3 4 4 5 6 6 6 7 7 7 7 6 6 6 6 6 6 6 6 6
9 8 9 9 8 8 7 8 7 7 8 8 8 7 6 5 4 5 4 3 3 3 3 2 3 3 2 2 3 4 4 4 4 6 6 6 7 7 7 7 7 6 6 7 6 6 6 6 6
10 10 9 9 9 9 8 7 8 8 8 8 8 7 6 5 6 6 5 4 5 4 3 3 3 3 3 3 3 3 3 4 4 5 6 6 7 7 7 7 7 7 7 7 6 6 6 5 5
11 10 10 10 9 9 9 8 8 9 8 8 7 7 7 6 6 6 6 5 5 4 4 4 4 3 3 3 3 2 3 4 5 5 6 6 7 7 7 7 7 7 7 7 6 5 5 5 5
11 10 10 9 10 10 9 8 8 9 9 8 8 8 7 7 7 6 6 6 6 5 5 5 4 3 3 4 3 2 3 4 5 5 6 6 7 7 7 7 7 6 6 6 5 5 5 5 5
11 11 9 8 9 11 10 9 9 9 9 9 9 8 8 8 7 7 7 7 6 5 5 5 5 4 3 4 3 3 4 5 5 5 5 6 7 7 7 7 6 6 6 6 5 5 4 5 5
10 11 10 9 9 9 9 9 9 9 9 9 8 8 9 8 7 7 7 7 7 7 6 5 5 5 4 4 4 3 3 4 4 4 5 6 6 6 7 7 7 6 6 6 5 5 5 5 5
10 10 10 10 10 9 9 9 10 10 10 9 9 9 9 9 8 8 8 7 7 7 7 6 5 5 5 4 3 3 3 4 4 4 5 5 6 6 7 7 7 6 6 6 5 5 5 4 4
10 10 10 10 10 10 9 9 9 10 10 10 9 10 9 9 9 10 9 8 8 8 7 6 6 5 5 4 3 3 4 4 4 4 4 5 6 7 7 7 7 6 6 5 5 5 4 3 3
10 11 10 10 10 10 9 10 10 10 9 9 9 10 10 9 10 10 9 9 8 7 7 7 6 5 5 4 3 3 3 3 3 4 4 5 6 6 6 7 7 6 6 5 5 4 3 3 2
10 9 9 9 9 9 9 10 10 10 10 9 8 10 11 10 10 10 10 9 8 7 6 6 6 5 5 4 4 4 3 3 3 4 4 4 5 6 6 6 6 6 6 5 5 4 3 2 2
9 8 8 9 9 9 10 9 9 9 9 9 9 9 9 10 10 10 11 10 8 7 6 7 7 6 6 5 4 3 2 2 3 3 4 4 5 6 6 6 6 6 5 5 4 4 3 3 2
8 8 8 9 10 10 9 9 10 9 8 9 9 9 9 10 11 11 11 11 10 8 7 7 6 6 6 5 4 3 3 3 3 3 3 4 5 6 6 6 6 5 5 5 4 3 3 2 2
9 9 8 8 9 9 10 9 10 9 9 9 8 9 9 9 11 11 11 11 10 9 8 8 7 6 6 5 4 4 3 3 3 3 3 4 5 5 6 6 5 5 5 4 3 3 2 2 1
8 9 9 9 8 9 9 9 9 9 9 9 9 9 9 9 10 11 11 11 10 9 9 8 8 7 7 6 5 4 3 2 2 2 2 4 5 5 5 5 5 5 4 3 3 2 2 2 1
8 9 9 9 8 8 9 9 9 9 9 10 9 9 10 10 10 10 11 11 11 10 9 9 8 8 7 6 5 4 3 2 2 2 2 3 4 5 5 5 5 5 4 3 3 2 2 1 2
9 9 10 9 8 8 9 8 8 9 9 10 10 10 11 11 10 9 10 10 10 10 9 9 9 8 7 6 6 5 3 3 2 2 2 2 3 3 4 5 5 5 4 4 3 2 2 1 1
8 8 9 9 9 9 9 9 8 9 9 10 10 10 11 11 11 10 10 10 10 10 9 9 8 8 7 7 6 5 4 4 3 2 2 2 3 3 4 4 5 5 4 3 2 2 2 1 1
8 8 8 8 8 8 8 9 9 8 9 9 10 10 11 11 11 10 11 10 9 9 9 9 9 8 7 7 6 6 5 4 3 2 1 1 2 3 4 4 5 5 4 3 2 2 2 1 1
6 7 7 7 8 8 8 8 8 8 8 9 9 9 10 10 10 10 10 10 9 8 8 8 8 8 7 7 6 5 5 4 4 3 2 1 2 3 3 4 4 4 4 3 3 2 2 2 1
7 7 7 7 7 7 7 7 8 8 8 8 9 10 10 10 10 10 10 10 10 9 9 9 9 8 7 7 6 6 5 5 4 3 2 2 2 3 3 4 4 4 4 4 3 2 2 2 2
7 8 7 7 7 7 7 8 8 8 8 8 9 10 11 11 12 12 11 10 10 10 10 9 9 8 8 7 7 7 6 5 5 4 3 3 3 3 4 4 4 4 4 4 3 3 3 2 2
7 8 8 7 7 6 7 8 7 7 7 7 8 9 10 12 12 13 13 12 12 12 11 10 9 9 9 8 8 7 6 6 6 5 5 4 3 4 4 4 4 4 4 4 3 3 3 3 3
6 7 7 7 7 6 6 6 5 6 6 6 7 8 9 10 11 11 12 12 11 12 12 11 11 11 10 9 8 8 8 7 7 6 5 5 4 5 5 5 5 5 5 4 4 4 4 5 5
7 7 7 8 7 6 6 6 5 5 6 6 6 7 9 10 11 11 11 11 11 12 12 12 12 11 11 10 9 9 9 8 8 7 7 6 6 6 6 6 6 5 5 5 5 5 6 6 6
8 8 8 8 7 6 6 6 5 6 6 6 6 7 9 10 11 11 10 11 11 12 12 12 12 13 12 11 11 11 10 9 9 9 8 8 8 7 7 7 7 7 7 7 7 7 7 8 8
9 9 9 8 8 7 7 6 6 7 7 7 7 7 9 9 10 11 10 11 12 12 12 12 13 13 12 11 12 11 11 11 11 11 10 10 9 8 8 8 8 8 8 8 9 9 9 9 9
10 10 10 9 9 8 8 7 7 7 7 7 7 8 9 10 10 10 10 10 11 11 12 12 12 13 12 12 12 12 12 12 12 12 11 11 10 10 10 10 10 10 10 10 10 10 10 11 11
Wind_Direction
202 200 202 209 213 211 211 211 209 208 213 211 200 195 201 205 212 193 189 188 216 238 287 320 314 330 341 348 358 4 4 1 358 356 354 350 344 347 345 337 335 328 325 317 298 286 281 275 265
212 208 213 218 221 220 213 212 213 223 223 221 218 214 212 219 211 199 202 210 226 227 283 296 286 312 330 338 349 354 351 350 354 358 355 352 349 348 345 339 335 325 319 318 309 292 285 276 269
214 212 216 219 221 222 218 218 225 224 227 226 228 230 228 228 218 212 218 218 228 238 267 276 280 303 325 340 341 350 351 349 353 355 355 352 347 344 340 334 329 324 318 316 314 303 290 276 265
219 224 223 220 225 227 227 223 230 230 230 230 232 229 228 223 218 225 224 222 234 241 250 264 275 286 302 323 329 341 345 348 349 350 351 349 346 344 339 332 326 323 319 315 313 308 296 284 265
230 230 227 225 228 234 236 238 238 234 232 231 230 226 222 226 232 235 233 228 237 241 249 263 275 269 279 298 310 329 345 346 342 345 346 346 345 346 340 333 327 323 320 316 315 306 295 284 269
232 230 231 228 228 234 243 248 244 238 231 230 231 230 231 236 238 237 234 235 237 244 255 267 273 272 276 280 286 309 334 341 342 343 344 348 349 348 344 342 334 326 321 318 313 304 293 284 271
235 234 230 230 232 237 245 247 239 235 234 237 235 234 242 239 237 234 232 232 240 246 250 261 256 267 266 254 272 303 323 333 335 339 342 347 347 348 345 343 339 332 326 318 312 304 289 282 270
236 238 237 236 237 238 240 243 242 241 239 235 233 237 242 238 234 232 233 228 237 250 247 256 254 255 257 256 269 288 304 315 324 332 340 346 347 347 345 341 338 335 334 327 316 310 296 281 267
237 242 241 243 246 241 237 238 243 247 247 240 234 238 238 234 233 231 232 237 245 246 243 251 250 252 254 258 277 289 302 309 320 329 340 344 345 346 343 339 336 333 333 332 322 314 301 289 266
240 244 247 249 250 245 240 241 242 245 248 245 240 237 237 233 233 237 238 241 245 243 241 244 246 254 257 262 275 288 300 303 311 328 340 340 341 345 344 340 337 335 334 333 324 314 309 299 269
244 247 250 249 250 248 245 244 246 249 247 246 242 235 233 234 234 235 237 242 244 244 238 236 243 250 252 255 265 284 298 307 311 323 335 339 340 341 343 341 336 335 333 331 327 322 321 309 278
251 251 246 245 248 246 246 247 251 250 251 247 237 227 223 228 232 237 237 237 239 240 236 233 240 252 246 244 265 277 295 313 315 320 327 331 336 341 343 347 343 338 334 333 335 337 338 320 283
252 249 242 240 241 244 247 250 253 253 251 249 237 229 228 230 233 236 238 246 244 235 235 230 238 237 234 236 252 270 287 293 305 321 331 334 338 341 345 346 346 344 343 339 342 349 350 336 294
252 248 240 240 241 241 246 246 246 249 250 249 241 236 232 232 234 234 238 241 238 241 235 222 227 225 230 238 252 260 275 289 303 320 332 336 338 341 342 343 345 347 349 349 349 351 353 357 340
259 255 247 242 243 241 244 244 244 245 247 252 249 242 237 234 233 234 235 233 232 237 229 225 224 223 223 229 238 253 262 283 301 314 331 337 341 345 345 347 351 352 354 355 357 357 355 355 355
261 254 249 248 245 247 245 244 243 243 248 251 245 240 237 232 234 233 230 232 230 225 220 221 224 225 225 224 234 247 254 282 301 313 330 342 348 355 358 357 357 356 357 358 5 15 22 13 15
258 251 247 249 252 252 244 245 244 244 246 248 244 239 235 229 234 232 231 226 227 225 224 224 228 233 233 230 234 240 241 270 293 313 330 348 353 358 3 4 3 2 5 7 11 26 38 57 75
256 252 246 249 254 251 247 244 243 242 242 243 240 236 234 232 230 233 230 229 227 225 224 224 227 231 229 227 229 227 225 252 277 306 328 349 355 359 4 8 12 12 14 17 21 31 45 71 84
257 258 254 253 254 253 251 249 248 248 242 241 237 235 230 230 230 232 233 229 223 216 217 222 226 228 225 220 217 219 228 245 259 289 309 335 348 358 7 15 17 15 16 17 23 28 36 57 64
258 256 255 255 253 251 250 249 252 249 245 242 236 233 227 229 232 234 232 229 219 216 220 219 224 228 221 216 218 228 236 243 249 272 283 319 341 357 8 12 9 5 5 8 15 25 28 26 17
260 257 256 254 251 251 250 248 254 253 247 240 236 233 229 231 230 233 228 221 222 221 222 224 224 218 213 215 221 229 235 237 236 250 270 318 344 0 9 10 7 3 3 7 9 8 5 15 359
259 256 259 257 250 251 252 248 250 252 245 236 231 230 229 229 222 221 217 217 222 219 217 218 216 210 209 217 225 229 233 235 233 238 250 301 332 345 355 358 359 358 4 13 10 7 9 2 352
256 251 255 257 253 251 252 251 244 246 238 233 230 230 231 225 216 214 214 217 219 216 215 211 210 210 211 215 225 228 228 230 224 228 246 283 311 328 334 340 347 350 353 358 359 354 349 340 336
255 249 253 257 262 260 256 259 250 243 232 231 232 232 231 222 217 218 221 222 222 219 214 211 209 208 210 217 225 227 228 227 224 229 245 269 296 313 320 328 335 341 346 349 353 351 348 341 327
254 249 251 257 265 271 262 262 260 245 237 236 238 237 229 221 220 222 224 225 225 223 220 217 216 216 217 224 229 228 232 233 233 241 248 257 279 298 308 311 320 327 333 338 339 337 333 329 322
256 252 252 258 266 268 262 262 261 251 249 246 244 238 229 224 223 224 222 224 225 224 225 224 223 222 223 229 237 237 240 240 242 247 250 258 269 285 293 296 300 305 310 317 318 316 315 311 308
254 256 257 261 265 267 267 266 264 259 253 247 243 235 229 226 225 225 224 227 228 226 227 227 227 226 225 232 236 241 246 246 246 248 257 265 271 280 284 288 290 290 295 304 307 303 304 304 301
252 254 259 263 262 261 264 263 257 257 257 255 251 242 233 231 227 226 227 228 228 227 227 229 231 228 228 234 237 242 247 248 249 253 260 268 271 274 278 282 282 280 284 293 299 299 302 302 299
255 256 259 263 266 270 270 267 263 258 261 265 262 252 242 238 232 228 229 229 229 230 229 230 229 227 229 236 240 245 249 252 257 256 258 264 268 272 274 275 279 280 282 288 292 295 296 296 295
252 254 257 260 267 273 276 271 265 260 259 263 264 256 247 240 237 234 233 232 233 233 232 232 231 230 235 242 243 247 251 254 258 257 258 261 265 268 272 276 278 280 284 289 292 292 295 296 296